{"data":{"norad_id":68415,"intl_designator":"2026-066D","name":"TIANSHI-01","alt_names":[],"object_type":"PAYLOAD","status":"ACTIVE","operator":null,"country":"PRC","launch_date":"2026-03-30","launch_site_code":"JSC","launch_vehicle":null,"mission":null,"orbit_class":"UNKNOWN","rcs_meters":null,"size_class":null,"mass_kg":null,"dimensions":null,"purposes":[],"wikipedia_slug":null,"has_3d_model":false,"image_url":null,"decayed_at":null,"tle_current":{"epoch":"2026-05-25T05:34:47.654400Z","epoch_age_seconds":50862,"freshness":"FRESH","line1":"1 68415U 26066D   26145.23249600  .00002089  00000+0  22031-3 0  9997","line2":"2 68415  84.9667 242.3365 0024239 338.0892  21.9292 14.88576039  8312","mean_motion":14.88576039,"eccentricity":0.0024239,"inclination_deg":84.9667,"raan_deg":242.3365,"arg_perigee_deg":338.0892,"mean_anomaly_deg":21.9292,"bstar":0.00022031,"rev_number":831,"period_min":96.736744531194,"perigee_km":585.46371213373,"apogee_km":619.30388085096,"semimajor_km":6980.5207964923,"source":"CELESTRAK","updated_at":"2026-05-25T13:38:07.809933Z"}}}